ARIANE 5 R/B, 41383

Orbit data source: Space-Track

ARIANE 5 R/B, 41383 is space debris in HEO originally from a launch on Wed, 09 Mar 2016 UTC launched from the French Guiana (FRGUI). Debris objects in space refer to the collection of defunct objects orbiting the Earth. Examples of debris include non-operational satellites, rocket bodies, and fragments generated from explosions, collisions, or faulty payload assembly.

Loading next visibility...
Identifier
41383, 2016-014B
Orbit
HEO
Last TLE update
19 hours ago
Origin
Manufacturer
Airbus Safran
Mission
Spacecraft
Bus & Motor
ESC-A, Unknown motor
Mass
~5,000 kg wet, ~5,000 kg dry
Launch date (UTC)
2016-03-09 (9 years ago)
Launch vehicle
Unknown
Launch site
French Guiana (FRGUI)
Object type
Payload
Rocket body
Debris
Shape & HBR
Cyl + 1 Nozzle, 3.5 m
Radar Cross Section
41.627 m², Large (>1 m²)

Expand to show TLE details & history

TLE from 19 hours ago
0 ARIANE 5 R/B
1 41383U 16014B   25199.17871808  .00005307  00000-0  64629-3 0  9992
2 41383   0.3398 185.6434 6577483  17.4968 103.3503  3.23037299 91733
Epoch: 2025-07-18T04:17Z
TLE epoch observation values (Epoch: 2025-07-18T04:17:21.242Z)
Latitude
0.02394°
Longitude
-0.57241°
Altitude
21,371.026 km
Speed
2.848 km/s
True Right ascension
23h 59m 59s
True Declination
0° 01' 26"
Sunlit
Object was in daylight at epoch
Visualization orbit readout
Latitude
-0.31649°
Longitude
84.36438°
Altitude
9,671.899 km
Speed
5.389 km/s
Apparent Right ascension
04h 36m 51s
Apparent Declination
-13° 13' 17"
Sunlit
Object is in daylight
Visualization observer readout
Local Sidereal Time
12:26:26
Azimuth
277.383° WNW
Elevation
-29.361°
Doppler factor
1
Orbital elements
Apogee altitude
25,675.11 km
Perigee altitude
239.441 km
Semi-major axis
19,335.413 km
Eccentricity
0.65775
Inclination
0.3398°
RAAN
185.6434°
Arg. of periapsis
17.4968°
True anomaly
156.89249°
Mean anomaly
103.3503°
Eccentric anomaly
131.55264°
Mean motion
0.80726 °/min
Orbital period
445.95 mins
BSTAR
0.00064629
Loading maneuver chart data...
Loading SW <> Apogee altitude chart data...
Loading historical data...
Loading historical data...
Loading historical data...
Loading historical data...
Loading historical data...
Loading historical data...
Loading historical data...
Other satellites on launch #14 in the year 2016 (2016-03-09 UTC)
|